Big Rapids, MI

6:48 AM EST on November 12, 2019 (GMT -0500)
Roben-Hood

Weather History for KRQB - May, 2019

Change the Weather History Date:

Wednesday, May 8, 2019

  Actual Average Record
Temperature  
Mean Temperature 46 °F -  
Max Temperature 56 °F 64 °F 85 °F (1979)
Min Temperature 37 °F 39 °F 25 °F (1977)
Degree Days  
Heating Degree Days 18    
Moisture  
Dew Point 32 °F    
Average Humidity 54    
Maximum Humidity 70    
Minimum Humidity 38    
Precipitation  
Precipitation 0.00 in - - ()
Sea Level Pressure  
Sea Level Pressure 30.18 in    
Wind  
Wind Speed 8 mph (ESE)    
Max Wind Speed 22 mph    
Max Gust Speed 32 mph    
Visibility 10 miles    
Events Rain    
Averages and records for this station are not official NWS values.
T = Trace of Precipitation, MM = Missing Value Source: NWS Daily Summary

Daily Weather History Graph

Daily Weather History Graph

Search for Another Location

Airport or City:

Astronomy

May. 08, 2019 Rise Set
Actual Time 6:25 AM EDT 8:52 PM EDT
Civil Twilight 5:52 AM EDT 9:24 PM EDT
Nautical Twilight 5:12 AM EDT 10:05 PM EDT
Astronomical Twilight 4:27 AM EDT 10:51 PM EDT
Moon 9:18 AM EDT (5/8) No Moon Set
Length of Visible Light 15h 32m
Length of Day
14h 27m
Waxing Crescent, 15% of the Moon is Illuminated
May 8
Waxing Crescent
May 11
First Quarter
May 18
Full
May 26
Last Quarter
Jun 3
New

Hourly Weather History & Observations

Time (EDT) Temp. Windchill Dew Point Humidity Pressure Visibility Wind Dir Wind Speed Gust Speed Precip Events Conditions
12:15 AM 44.8 °F 43.3 °F 32.7 °F 63% 30.30 in 10.0 mi East 3.5 mph - N/A   Clear
12:35 AM 44.1 °F 40.8 °F 32.0 °F 63% 30.30 in 10.0 mi East 5.8 mph - N/A   Clear
12:36 AM 43.9 °F 41.3 °F 32.0 °F 63% 30.30 in 10.0 mi East 4.6 mph - N/A   Clear
12:55 AM 43.0 °F 40.3 °F 31.3 °F 63% 30.30 in 10.0 mi ESE 4.6 mph - N/A   Clear
1:15 AM 42.3 °F 40.5 °F 29.8 °F 61% 30.30 in 10.0 mi SSE 3.5 mph - N/A   Clear
1:35 AM 41.4 °F - 29.7 °F 63% 30.29 in 10.0 mi Calm Calm - N/A   Clear
1:36 AM 41.4 °F - 29.5 °F 63% 30.29 in 10.0 mi Calm Calm - N/A   Clear
1:55 AM 41.0 °F 39.0 °F 29.3 °F 63% 30.29 in 10.0 mi East 3.5 mph - N/A   Clear
2:15 AM 41.0 °F 38.0 °F 29.3 °F 63% 30.29 in 10.0 mi ESE 4.6 mph - N/A   Clear
2:35 AM 41.2 °F 38.2 °F 29.5 °F 63% 30.29 in 10.0 mi East 4.6 mph - N/A   Clear
2:36 AM 41.2 °F 37.3 °F 29.3 °F 63% 30.29 in 10.0 mi East 5.8 mph - N/A   Clear
2:55 AM 40.6 °F 37.5 °F 29.5 °F 64% 30.28 in 10.0 mi East 4.6 mph - N/A   Clear
2:56 AM 40.6 °F 37.5 °F 29.5 °F 64% 30.28 in 10.0 mi East 4.6 mph - N/A   Clear
3:15 AM 39.9 °F - 29.8 °F 67% 30.28 in 10.0 mi Calm Calm - N/A   Clear
3:16 AM 39.9 °F - 29.8 °F 67% 30.28 in 10.0 mi Calm Calm - N/A   Clear
3:35 AM 40.3 °F - 29.5 °F 65% 30.28 in 10.0 mi Calm Calm - N/A   Clear
3:55 AM 39.6 °F - 29.8 °F 68% 30.28 in 10.0 mi Calm Calm - N/A   Clear
3:56 AM 39.6 °F - 29.8 °F 68% 30.28 in 10.0 mi Calm Calm - N/A   Clear
4:15 AM 39.2 °F - 30.0 °F 70% 30.28 in 10.0 mi Calm Calm - N/A   Clear
4:16 AM 39.2 °F - 30.0 °F 70% 30.28 in 10.0 mi Calm Calm - N/A   Clear
4:35 AM 39.2 °F - 30.0 °F 70% 30.28 in 10.0 mi Calm Calm - N/A   Clear
4:55 AM 39.4 °F 37.2 °F 29.8 °F 69% 30.29 in 10.0 mi East 3.5 mph - N/A   Clear
5:15 AM 39.4 °F - 28.2 °F 64% 30.30 in 10.0 mi Calm Calm - N/A   Clear
5:16 AM 39.4 °F - 28.2 °F 64% 30.30 in 10.0 mi Calm Calm - N/A   Clear
5:35 AM 38.8 °F - 27.5 °F 64% 30.30 in 10.0 mi Calm Calm - N/A   Clear
5:55 AM 38.8 °F - 26.6 °F 61% 30.31 in 10.0 mi Calm Calm - N/A   Clear
6:15 AM 37.9 °F 35.5 °F 26.6 °F 64% 30.31 in 10.0 mi East 3.5 mph - N/A   Clear
6:35 AM 37.8 °F - 27.0 °F 65% 30.30 in 10.0 mi Calm Calm - N/A   Clear
6:36 AM 37.8 °F - 27.0 °F 65% 30.30 in 10.0 mi Calm Calm - N/A   Clear
6:55 AM 38.5 °F 34.1 °F 27.9 °F 66% 30.30 in 10.0 mi East 5.8 mph - N/A   Clear
6:56 AM 38.7 °F 34.3 °F 27.9 °F 65% 30.30 in 10.0 mi East 5.8 mph - N/A   Clear
7:15 AM 40.1 °F 33.2 °F 27.5 °F 61% 30.31 in 10.0 mi East 11.5 mph - N/A   Clear
7:35 AM 41.0 °F 34.7 °F 28.0 °F 60% 30.31 in 10.0 mi East 10.4 mph - N/A   Clear
7:55 AM 41.9 °F 35.9 °F 29.1 °F 61% 30.32 in 10.0 mi ESE 10.4 mph 17.3 mph N/A   Clear
8:15 AM 42.3 °F 36.3 °F 30.4 °F 63% 30.31 in 10.0 mi East 10.4 mph - N/A   Clear
8:16 AM 42.3 °F 36.8 °F 30.4 °F 63% 30.31 in 10.0 mi East 9.2 mph - N/A   Clear
8:55 AM 44.4 °F 37.9 °F 31.6 °F 61% 30.29 in 10.0 mi ESE 13.8 mph 17.3 mph N/A   Clear
9:15 AM 44.8 °F 37.7 °F 31.3 °F 59% 30.29 in 10.0 mi ESE 16.1 mph 19.6 mph N/A   Clear
9:35 AM 47.1 °F - 31.5 °F 55% 30.28 in 10.0 mi ESE 16.1 mph 23.0 mph N/A   Clear
9:36 AM 47.1 °F - 31.3 °F 54% 30.28 in 10.0 mi ESE 15.0 mph 23.0 mph N/A   Clear
9:55 AM 48.4 °F - 30.4 °F 50% 30.28 in 10.0 mi ESE 18.4 mph 23.0 mph N/A   Clear
9:56 AM 48.4 °F - 30.2 °F 49% 30.28 in 10.0 mi ESE 18.4 mph 23.0 mph N/A   Clear
10:15 AM 49.3 °F - 30.9 °F 49% 30.27 in 10.0 mi ESE 15.0 mph 19.6 mph N/A   Clear
10:35 AM 50.9 °F - 29.7 °F 44% 30.26 in 10.0 mi ESE 17.3 mph 23.0 mph N/A   Clear
10:36 AM 50.7 °F - 29.7 °F 44% 30.26 in 10.0 mi ESE 16.1 mph 23.0 mph N/A   Clear
10:55 AM 50.7 °F - 29.7 °F 44% 30.26 in 10.0 mi SE 16.1 mph 21.9 mph N/A   Clear
10:56 AM 50.7 °F - 29.8 °F 45% 30.26 in 10.0 mi SE 15.0 mph 21.9 mph N/A   Clear
11:15 AM 52.7 °F - 30.7 °F 43% 30.25 in 10.0 mi ESE 15.0 mph 21.9 mph N/A   Clear
11:35 AM 52.9 °F - 31.1 °F 43% 30.24 in 10.0 mi ESE 13.8 mph 24.2 mph N/A   Clear
11:36 AM 52.9 °F - 31.5 °F 44% 30.24 in 10.0 mi ESE 17.3 mph 24.2 mph N/A   Clear
11:55 AM 52.9 °F - 30.4 °F 42% 30.22 in 10.0 mi East 11.5 mph 24.2 mph N/A   Scattered Clouds
12:15 PM 53.2 °F - 30.7 °F 42% 30.22 in 10.0 mi ESE 13.8 mph 25.3 mph N/A   Mostly Cloudy
12:16 PM 53.2 °F - 30.6 °F 42% 30.22 in 10.0 mi ESE 13.8 mph 20.7 mph N/A   Mostly Cloudy
12:35 PM 53.6 °F - 30.4 °F 41% 30.21 in 10.0 mi East 11.5 mph 20.7 mph N/A   Overcast
12:55 PM 53.6 °F - 29.8 °F 40% 30.20 in 10.0 mi East 15.0 mph 18.4 mph N/A   Overcast
1:15 PM 53.8 °F - 30.0 °F 40% 30.20 in 10.0 mi East 10.4 mph 19.6 mph N/A   Overcast
1:16 PM 53.8 °F - 30.4 °F 41% 30.20 in 10.0 mi East 11.5 mph 19.6 mph N/A   Overcast
1:35 PM 54.5 °F - 29.8 °F 39% 30.19 in 10.0 mi ESE 16.1 mph 20.7 mph N/A   Overcast
1:36 PM 54.5 °F - 29.8 °F 39% 30.19 in 10.0 mi ESE 16.1 mph 20.7 mph N/A   Overcast
1:55 PM 55.4 °F - 30.2 °F 38% 30.19 in 10.0 mi East 17.3 mph 21.9 mph N/A   Overcast
1:56 PM 55.2 °F - 29.8 °F 38% 30.19 in 10.0 mi East 16.1 mph 21.9 mph N/A   Overcast
2:15 PM 54.9 °F - 30.0 °F 39% 30.17 in 10.0 mi East 12.7 mph 20.7 mph N/A   Overcast
2:35 PM 55.4 °F - 32.0 °F 41% 30.17 in 10.0 mi ESE 11.5 mph - N/A   Overcast
2:55 PM 55.0 °F - 32.5 °F 43% 30.15 in 10.0 mi ESE 17.3 mph 23.0 mph N/A Rain Light Rain
3:15 PM 56.3 °F - 32.4 °F 40% 30.14 in 10.0 mi ESE 18.4 mph 24.2 mph N/A   Overcast
3:35 PM 55.6 °F - 31.8 °F 41% 30.14 in 10.0 mi ESE 18.4 mph 26.5 mph N/A   Overcast
3:36 PM 55.6 °F - 31.8 °F 41% 30.14 in 10.0 mi ESE 19.6 mph 26.5 mph N/A   Overcast
3:55 PM 56.3 °F - 32.7 °F 41% 30.13 in 10.0 mi ESE 12.7 mph 20.7 mph N/A   Overcast
4:15 PM 55.8 °F - 32.4 °F 41% 30.12 in 10.0 mi ESE 18.4 mph 26.5 mph N/A Rain Light Rain
4:35 PM 53.6 °F - 38.1 °F 56% 30.12 in 10.0 mi East 11.5 mph 20.7 mph N/A Rain Light Rain
4:36 PM 53.6 °F - 38.3 °F 56% 30.12 in 10.0 mi East 10.4 mph 20.7 mph N/A Rain Light Rain
4:55 PM 52.7 °F - 38.8 °F 59% 30.10 in 10.0 mi East 13.8 mph 20.7 mph N/A   Light Drizzle
5:15 PM 53.4 °F - 37.4 °F 55% 30.08 in 10.0 mi East 15.0 mph 24.2 mph N/A   Light Drizzle
5:35 PM 54.0 °F - 36.0 °F 51% 30.08 in 10.0 mi East 15.0 mph 24.2 mph N/A   Overcast
5:55 PM 54.3 °F - 34.9 °F 48% 30.06 in 10.0 mi East 16.1 mph 24.2 mph N/A   Overcast
5:56 PM 54.3 °F - 34.9 °F 48% 30.06 in 10.0 mi East 17.3 mph 24.2 mph N/A   Overcast
6:15 PM 54.0 °F - 34.9 °F 49% 30.05 in 10.0 mi East 15.0 mph 19.6 mph N/A   Scattered Clouds
6:16 PM 54.0 °F - 34.9 °F 49% 30.05 in 10.0 mi ESE 15.0 mph 19.6 mph N/A   Scattered Clouds
6:35 PM 54.5 °F - 35.2 °F 48% 30.04 in 10.0 mi East 16.1 mph 25.3 mph N/A   Mostly Cloudy
6:55 PM 54.1 °F - 35.8 °F 50% 30.04 in 10.0 mi East 20.7 mph 27.6 mph N/A   Mostly Cloudy
6:56 PM 54.0 °F - 35.8 °F 50% 30.04 in 10.0 mi ESE 21.9 mph 27.6 mph N/A   Mostly Cloudy
7:15 PM 53.2 °F - 35.8 °F 52% 30.03 in 10.0 mi ESE 21.9 mph 31.1 mph N/A   Scattered Clouds
7:16 PM 53.1 °F - 36.0 °F 52% 30.04 in 10.0 mi ESE 18.4 mph 31.1 mph N/A   Scattered Clouds
7:35 PM 52.7 °F - 36.0 °F 53% 30.03 in 10.0 mi East 19.6 mph 32.2 mph N/A   Scattered Clouds
7:55 PM 51.8 °F - 36.0 °F 55% 30.01 in 10.0 mi East 16.1 mph 28.8 mph N/A   Scattered Clouds
8:15 PM 51.3 °F - 36.1 °F 56% 30.00 in 10.0 mi East 17.3 mph 27.6 mph N/A   Scattered Clouds
8:35 PM 50.9 °F - 36.1 °F 57% 30.00 in 10.0 mi East 17.3 mph 26.5 mph N/A   Clear
8:36 PM 50.9 °F - 36.1 °F 57% 30.00 in 10.0 mi East 16.1 mph 26.5 mph N/A   Clear
8:55 PM 50.4 °F - 36.0 °F 58% 29.99 in 10.0 mi ESE 16.1 mph 24.2 mph N/A   Clear
9:15 PM 50.4 °F - 36.0 °F 58% 29.98 in 10.0 mi East 17.3 mph 26.5 mph N/A   Clear
9:16 PM 50.4 °F - 36.0 °F 58% 29.98 in 10.0 mi ESE 15.0 mph 26.5 mph N/A   Clear
9:35 PM 50.2 °F - 36.0 °F 58% 29.99 in 10.0 mi ESE 17.3 mph 23.0 mph N/A   Clear
9:36 PM 50.0 °F - 36.0 °F 59% 29.99 in 10.0 mi ESE 16.1 mph 23.0 mph N/A   Clear
9:55 PM 50.0 °F - 36.0 °F 59% 29.99 in 10.0 mi ESE 11.5 mph 19.6 mph N/A   Clear
10:15 PM 49.8 °F - 35.6 °F 58% 29.97 in 10.0 mi ESE 11.5 mph 19.6 mph N/A   Clear
10:35 PM 50.0 °F - 35.1 °F 57% 29.98 in 10.0 mi ESE 11.5 mph 20.7 mph N/A   Clear
10:36 PM 50.0 °F - 35.1 °F 57% 29.98 in 10.0 mi ESE 13.8 mph 20.7 mph N/A   Clear
10:55 PM 50.2 °F - 34.7 °F 55% 29.96 in 10.0 mi ESE 16.1 mph 21.9 mph N/A   Clear
11:15 PM 50.5 °F - 34.0 °F 53% 29.95 in 10.0 mi ESE 17.3 mph 25.3 mph N/A   Clear
11:35 PM 50.4 °F - 33.8 °F 53% 29.94 in 10.0 mi ESE 9.2 mph 21.9 mph N/A   Scattered Clouds
11:55 PM 50.4 °F - 32.9 °F 51% 29.93 in 10.0 mi ESE 13.8 mph 26.5 mph N/A   Scattered Clouds
11:56 PM 50.4 °F - 32.9 °F 51% 29.92 in 10.0 mi ESE 15.0 mph 26.5 mph N/A   Scattered Clouds